User: anonymous
Location: Unspecified
(0.0000°N, 0.0000°E)
Time: 14:55:33
(UTC+02:00)
Language:

Cosmos 1758 - Orbit

View from above orbital plane
View from above orbital plane
View from above satellite
View from above satellite

Ground track
Ground track

The orbit data is extracted from the following two-line orbital elements,

1 16791U 86046A   14204.96857353  .00001026  00000-0  77673-4 0   865
2 16791 082.4739 342.2872 0019278 089.1665 271.1768 15.01124456526542
Epoch (UTC): 23 July 2014 23:14:44
Eccentricity: 0.0019278
inclination: 82.4739°
perigee height: 550 km
apogee height: 577 km
right ascension of ascending node: 342.2872°
argument of perigee: 89.1665°
revolutions per day: 15.01124456
mean anomaly at epoch: 271.1768°
orbit number at epoch: 52654

The dashed part of the orbit path shows where the satellite is in the earth's shadow,  

DLR